User: anonymous   Login
Location: Unspecified
(0.0000°N, 0.0000°E)
Time: 20:11:25
(UTC+00:00)
Language:

TBA - TO BE ASSIGNED - Orbit

View from above orbital plane
View from above orbital plane
View from above satellite
View from above satellite

Ground track
Ground track

The orbit is defined by the following mean orbital elements,

1 68059U          26145.46345763 +.00000000 +00000-0 +83078-3 0 00006
2 68059  53.1604  51.7817 0001278  90.7226 269.3923 15.34409862    08
Epoch (UTC): 25 May 2026 11:07:22
Eccentricity: 0.0001278
inclination: 53.1604°
perigee height: 462 km
apogee height: 464 km
right ascension of ascending node: 51.7817°
argument of perigee: 90.7226°
revolutions per day: 15.34409862
mean anomaly at epoch: 269.3923°

The dashed part of the orbit path shows where the satellite is in the earth's shadow,  

DLR